Lake Fork, ID

3:36 PM MDT on September 25, 2016 (GMT -0600)
McCall

Weather History for KMYL - November, 2010

Change the Weather History Date:

Friday, November 26, 2010

  Actual Average Record
Temperature  
Mean Temperature 21 °F 24 °F  
Max Temperature 28 °F 31 °F 48 °F (1950)
Min Temperature 13 °F 16 °F -5 °F (1993)
Degree Days  
Heating Degree Days 44 41  
Month to date heating degree days 897 926  
Since 1 July heating degree days 2066 2469  
Cooling Degree Days 0 0  
Month to date cooling degree days 0 0  
Year to date cooling degree days 508 25  
Moisture  
Dew Point 14 °F    
Average Humidity 75    
Maximum Humidity 88    
Minimum Humidity 62    
Precipitation  
Precipitation 0.00 in 0.07 in 0.79 in (1960)
Month to date precipitation 1.48 2.43  
Year to date precipitation 18.41 17.75  
Sea Level Pressure  
Sea Level Pressure 30.26 in    
Wind  
Wind Speed 1 mph (East)    
Max Wind Speed 6 mph    
Max Gust Speed 6 mph    
Visibility 10 miles    
Events      
T = Trace of Precipitation, MM = Missing Value Source: NWS Daily Summary

Daily Weather History Graph

Daily Weather History Graph

Search for Another Location

Airport or City:

Trip Planner

Search our weather history database for the weather conditions in past years. The results will help you decide how hot, cold, wet, or windy it might be!

Date:

Astronomy

Nov. 26, 2010 Rise Set
Actual Time 7:56 AM MST 5:07 PM MST
Civil Twilight 7:23 AM MST 5:39 PM MST
Nautical Twilight 6:47 AM MST 6:15 PM MST
Astronomical Twilight 6:12 AM MST 6:51 PM MST
Moon 10:26 PM MST (11/26) 12:01 PM MST (11/26)
Length of Visible Light 10h 16m
Length of Day
9h 10m
Waning Gibbous, 73% of the Moon is Illuminated
Nov 26
Waning Gibbous
Nov 28
Last Quarter
Dec 5
New
Dec 13
First Quarter
Dec 21
Full

Hourly Weather History & Observations

Time (MST) Temp. Windchill Dew Point Humidity Pressure Visibility Wind Dir Wind Speed Gust Speed Precip Events Conditions
12:51 AM 16.0 °F - 12.0 °F 84% 30.45 in 10.0 mi Calm Calm - N/A   Overcast
1:51 AM 17.1 °F 8.7 °F 12.9 °F 84% 30.44 in 10.0 mi NE 5.8 mph - N/A   Overcast
2:51 AM 16.0 °F - 12.9 °F 88% 30.43 in 10.0 mi Calm Calm - N/A   Overcast
3:27 AM 15.8 °F 10.2 °F 12.2 °F 86% 30.24 in 10.0 mi East 3.5 mph - N/A   Overcast
3:51 AM 17.1 °F 10.0 °F 12.9 °F 84% 30.41 in 10.0 mi East 4.6 mph - N/A   Overcast
4:51 AM 17.1 °F - 12.0 °F 81% 30.38 in 10.0 mi Calm Calm - N/A   Overcast
5:51 AM 14.0 °F 8.2 °F 10.9 °F 88% 30.37 in 10.0 mi NE 3.5 mph - N/A   Overcast
6:48 AM 15.8 °F - 12.2 °F 86% 30.16 in 10.0 mi Calm Calm - N/A   Overcast
6:51 AM 15.1 °F - 12.9 °F 91% 30.36 in 10.0 mi Calm Calm - N/A   Overcast
7:32 AM 15.8 °F - 12.2 °F 86% 30.16 in 10.0 mi Calm Calm - N/A   Mostly Cloudy
7:51 AM 14.0 °F 8.2 °F 10.9 °F 88% 30.35 in 10.0 mi ESE 3.5 mph - N/A   Partly Cloudy
8:11 AM 12.2 °F 6.1 °F 10.4 °F 92% 30.15 in 10.0 mi West 3.5 mph - N/A   Mostly Cloudy
8:51 AM 14.0 °F 8.2 °F 10.0 °F 84% 30.36 in 10.0 mi ESE 3.5 mph - N/A   Overcast
9:28 AM 15.8 °F - 12.2 °F 86% 30.17 in 10.0 mi Calm Calm - N/A   Scattered Clouds
9:51 AM 16.0 °F - 10.9 °F 81% 30.36 in 10.0 mi Calm Calm - N/A   Clear
10:39 AM 21.2 °F - 12.2 °F 68% 30.18 in 10.0 mi Calm Calm - N/A   Mostly Cloudy
10:51 AM 21.9 °F - 14.0 °F 72% 30.35 in 10.0 mi Calm Calm - N/A   Mostly Cloudy
11:03 AM 21.2 °F - 14.0 °F 74% 30.17 in 10.0 mi Calm Calm - N/A   Scattered Clouds
11:51 AM 21.9 °F - 15.1 °F 75% 30.32 in 10.0 mi Calm Calm - N/A   Mostly Cloudy
12:51 PM 24.1 °F - 14.0 °F 65% 30.29 in 10.0 mi Calm Calm - N/A   Overcast
1:51 PM 25.0 °F - 14.0 °F 63% 30.26 in 10.0 mi Calm Calm - N/A   Overcast
3:51 PM 27.0 °F 23.0 °F 15.1 °F 61% 30.21 in 10.0 mi WSW 3.5 mph - N/A   Overcast
4:51 PM 24.1 °F - 18.0 °F 77% 30.20 in 10.0 mi Calm Calm - N/A   Overcast
5:51 PM 24.1 °F - 17.1 °F 75% 30.19 in 10.0 mi Calm Calm - N/A   Overcast
6:51 PM 21.9 °F - 15.1 °F 75% 30.18 in 10.0 mi Calm Calm - N/A   Overcast
7:51 PM 21.9 °F - 16.0 °F 78% 30.18 in 10.0 mi Calm Calm - N/A   Overcast
8:51 PM 19.9 °F - 15.1 °F 81% 30.17 in 10.0 mi Calm Calm - N/A   Overcast
9:51 PM 19.0 °F - 16.0 °F 88% 30.14 in 10.0 mi Calm Calm - N/A   Mostly Cloudy
10:51 PM 21.0 °F - 17.1 °F 85% 30.08 in 10.0 mi Calm Calm - N/A   Overcast
11:51 PM 23.0 °F - 18.0 °F 81% 30.04 in 10.0 mi Calm Calm - N/A   Overcast